Vertical_Velocity
3 0 0 -2 -2 -2 -0 -3 -1 -3 -1 -1 -2 -1 -1 -0 -1 -3 -1 -1 -1 -2
0 1 -9 1 2 1 0 1 1 -0 1 0 -1 0 -1 -2 -3 -2 -2 -0 -0 -2
0 2 -1 6 0 -1 -2 -2 0 -1 0 -1 -0 2 -1 -1 -2 -3 -3 -2 -2 -1
-1 5 4 -4 1 3 7 -2 -9 -7 0 3 1 -3 0 1 2 1 2 -2 -1 -1
1 0 1 -6 -3 2 -3 -0 -9 2 -12 -11 -5 3 -0 -5 3 -2 -3 3 -1 -3
-1 -0 -3 -1 1 0 6 -1 -1 3 -6 2 -2 4 -1 4 2 -0 -1 3 -1 -1
-2 -5 -4 -0 1 1 3 4 -0 -5 1 2 7 8 2 1 1 -2 -0 3 -2 -1
-2 0 2 3 3 2 2 2 2 1 -1 -0 -3 -6 4 -0 -4 1 1 -0 0 -3
4 -2 -6 -1 1 4 -1 1 3 -7 -4 -2 -2 -10 -3 -3 2 4 5 3 2 0
-1 1 -2 -1 -0 0 -2 4 2 2 1 2 2 -2 0 4 4 2 1 0 2 0
-2 2 7 2 -1 3 0 0 3 3 3 3 5 3 4 4 5 5 5 1 1 3
1 5 4 -1 -2 2 4 1 -0 4 6 5 4 3 1 3 1 0 0 -0 2 0
6 3 2 5 3 -0 5 4 6 6 2 4 4 1 0 2 5 4 5 5 5 3
4 3 5 5 10 7 5 4 3 2 0 -0 1 4 1 4 1 5 5 -4 15 -2
Height
1481 1486 1490 1495 1500 1505 1508 1512 1516 1520 1524 1527 1530 1533 1536 1538 1540 1542 1544 1545 1546 1548
1476 1480 1484 1490 1496 1500 1504 1507 1511 1515 1520 1522 1526 1528 1531 1534 1535 1538 1540 1541 1542 1544
1471 1475 1480 1484 1489 1493 1498 1501 1506 1509 1514 1518 1521 1523 1526 1529 1531 1533 1534 1536 1538 1539
1464 1469 1474 1477 1482 1488 1493 1496 1500 1504 1508 1512 1515 1518 1521 1523 1525 1527 1528 1530 1532 1535
1458 1464 1467 1471 1476 1481 1485 1488 1491 1496 1501 1504 1509 1512 1513 1517 1519 1521 1523 1525 1527 1528
1452 1457 1460 1465 1469 1473 1478 1482 1485 1488 1494 1498 1502 1506 1508 1510 1513 1514 1517 1519 1522 1523
1446 1450 1454 1459 1464 1467 1470 1475 1479 1483 1486 1492 1496 1499 1502 1505 1507 1509 1510 1513 1515 1517
1439 1443 1448 1454 1458 1462 1464 1468 1472 1478 1482 1486 1489 1493 1496 1499 1500 1501 1503 1505 1507 1509
1432 1437 1442 1447 1452 1455 1458 1462 1465 1470 1475 1479 1482 1484 1488 1492 1493 1495 1497 1498 1499 1501
1424 1428 1434 1439 1444 1448 1451 1455 1458 1463 1467 1471 1473 1477 1481 1484 1485 1487 1489 1490 1491 1492
1417 1422 1426 1431 1436 1441 1444 1448 1452 1456 1460 1463 1465 1469 1472 1475 1478 1478 1479 1480 1482 1483
1412 1415 1419 1424 1429 1433 1437 1441 1445 1449 1452 1456 1458 1461 1463 1467 1469 1470 1472 1473 1474 1475
1405 1410 1414 1418 1421 1427 1431 1434 1438 1440 1444 1447 1449 1452 1455 1458 1460 1462 1463 1464 1464 1466
1398 1403 1407 1410 1414 1417 1421 1426 1429 1432 1435 1439 1441 1445 1449 1451 1453 1456 1457 1462 1460 1464